Weather Roundup
Issued by NWS

Home | Current Version | Previous Version | Text Only | Print | Product List | Glossary On
Versions: 1 2 3 4 5 6 7 8 9 10 11 12 13 14 15 16 17 18 19 20 21 22 23 24 25 26 27 28 29 30 31 32 33 34 35 36 37 38 39 40 41 42 43 44 45 46 47 48 49 50
000
NZUS93 KARX 231010
HRRWXR

CURRENT HOURLY OBSERVATIONS ACROSS
MUCH OF THE UPPER MISSISSIPPI VALLEY
NATIONAL WEATHER SERVICE LA CROSSE WI
400 AM CST SUN NOV 23 2014


...SOUTHEAST MINNESOTA...


CITY           SKY/WX    TMP DP  RH WIND       PRES   REMARKS
ROCHESTER      CLOUDY    48  47  96 S15       29.52F FOG
ROCHESTER/MAYO CLOUDY    49  48  96 S13G21    29.51F
WINONA         CLOUDY    52  48  87 S6        29.54F
AUSTIN         CLOUDY    48  48 100 S13       29.51S FOG
ALBERT LEA     CLOUDY    52  52 100 S12       29.48F FOG
DODGE CENTER   CLOUDY    48  48 100 S13       29.49F FOG
PRESTON        CLOUDY    48  47  96 S12       29.54F FOG
OWATONNA       CLOUDY    52  48  87 S16       29.47F
FARIBAULT      CLOUDY    52  48  87 S8        29.47F
$$

...ELSEWHERE IN MINNESOTA...


CITY           SKY/WX    TMP DP  RH WIND       PRES   REMARKS
MINNEAPOLIS    CLOUDY    50  48  93 S10       29.44F
INTNL FALLS    CLOUDY    33  31  92 SE3       29.40F FOG
DULUTH         DRZL/FOG  35  33  92 SE8       29.41F VSB 1/4 WCI  29
RED WING         N/A     52  48  87 S8        29.47F
REDWOOD FALLS  CLOUDY    44  42  93 CALM      29.40F
MANKATO        CLOUDY    52  46  82 SW10      29.45F
WORTHINGTON    CLOUDY    48  46  93 S14       29.39F
FAIRMONT       CLOUDY    50  46  87 S12       29.45F
$$

...SOUTHWEST WISCONSIN...


CITY           SKY/WX    TMP DP  RH WIND       PRES   REMARKS
LA CROSSE      CLOUDY    52  49  89 S14       29.56F
PRAIRIE DU CHI CLOUDY    50  48  92 SE6       29.61F FOG
BOSCOBEL       CLOUDY    51  48  89 S7        29.63F FOG
LONE ROCK      CLOUDY    52  47  83 S3        29.65F HAZE
PLATTEVILLE    CLOUDY    49  48  97 S12       29.66F
FORT MC COY    CLOUDY    51  49  92 S12G17    29.58F
CAMP DOUGLAS   CLOUDY    50  50 100 VRB7      29.60S
VIROQUA        CLOUDY    48  48 100 S13       29.59F
WIS DELLS      CLOUDY    48  46  91 S10G17    29.63S FOG
$$

...ELSEWHERE IN WISCONSIN...


CITY           SKY/WX    TMP DP  RH WIND       PRES   REMARKS
MILWAUKEE      CLOUDY    50  46  86 SW12G21   29.72F FOG
MADISON        CLOUDY    48  46  93 S7        29.68F FOG
GREEN BAY      CLOUDY    48  46  93 S8        29.66F FOG
EAU CLAIRE     CLOUDY    44  43  96 S15       29.50S FOG
BLACK RVR FLS  CLOUDY    51  51 100 S5        29.56F
MEDFORD        FOG       39  39 100 S10       29.54F VSB 1/4 WCI  33
WAUSAU         LGT RAIN  40  40 100 SE9       29.56F VSB 1/4 WCI  34
WIS RAPIDS     CLOUDY    49  47  93 S10       29.61F FOG
MARSHFIELD     FOG       45  44  97 S6        29.57F VSB 1/4
RICE LAKE      FOG       38  38  98 SE7       29.49F VSB<1/4 WCI  33
$$

...NORTHEAST IOWA...


CITY           SKY/WX    TMP DP  RH WIND       PRES   REMARKS
DECORAH        CLOUDY    50  50 100 S13       29.57S FOG
MASON CITY     CLOUDY    50  49  96 S12       29.53F FOG
CHARLES CITY   CLOUDY    48  48 100 S12       29.55F FOG
OELWEIN        CLOUDY    50  50 100 S15       29.59F FOG
$$

...ELSEWHERE IN IOWA...


CITY           SKY/WX    TMP DP  RH WIND       PRES   REMARKS
DES MOINES     CLOUDY    55  50  83 S12       29.57F
IOWA CITY      CLOUDY    51  50  96 S12       29.67F
FORT DODGE     CLOUDY    52  48  87 S10       29.51F
$$

...NORTHERN ILLINOIS...


CITY           SKY/WX    TMP DP  RH WIND       PRES   REMARKS
CHICAGO-OHARE  MOCLDY    48  44  86 S12       29.77F
CHICAGO-MIDWAY CLOUDY    50  45  83 S10       29.79F
MOLINE         CLOUDY    53  48  83 S16G23    29.68F
ROCKFORD       CLOUDY    49  47  93 S14       29.74F FOG
PEORIA         MOCLDY    51  45  79 S9        29.75F
$$

NOTE: "FAIR" INDICATES FEW OR NO CLOUDS BELOW 12,000 FEET WITH NO
SIGNIFICANT WEATHER AND/OR OBSTRUCTIONS TO VISIBILITY. WIND
SPEEDS ARE IN MILES-PER-HOUR.



USA.gov is the U.S. government's official web portal to all federal, state and local government web resources and services.